Starlink 32959

operational
NORAD ID: 63569 Int'l Des: 2025-076 Owner: SPXS Country: US Constellation: starlink
LEOCIRCULAR

关于 Starlink 32959

正在加载描述...

实时位置

正在加载3D地球...

即将过境

高度历史

Altitude vs Time

uPlot chart will show altitude changes over time

两行轨道根数

1 63569U 25076A 25352.20787092 .00027322 00000-0 99825-3 0 9993
2 63569 43.0022 65.8367 0001511 210.8154 149.2609 15.27594896 39320
Epoch: Dec 18, 2025 • Age: 12 hours

当前状态

高度 483.2 km
速度 7.63 km/s
星下点 29.29°N, 129.56°W
发射日期 Apr 14, 2025
运行时间 0.6 years
类型 internet

技术详情

分类 Payload
质量 730.00 kg
干质量 700.00 kg
总质量 730.00 kg
长度 0.30 m
直径 4.10 m
跨度 29.00 m
形状 Box + pan
制造商 SPXS
平台类型 Starlink V2M
阶段状态 In Orbit
所有者/国家 SPXS/US

大型星座

Loading constellations...